TimeAST,TemperatureF,Dew PointF,Humidity,Sea Level PressureIn,VisibilityMPH,Wind Direction,Wind SpeedMPH,Gust SpeedMPH,PrecipitationIn,Events,Conditions,WindDirDegrees,DateUTC
12:00 AM,82.4,60.8,48,29.89,-9999.0,NNW,16.1,-,N/A,,Clear,330,2013-10-21 21:00:00
12:30 AM,82.4,59.0,45,29.89,-9999.0,NW,17.3,28.8,N/A,,Clear,320,2013-10-21 21:30:00
1:00 AM,82.4,59.0,45,29.89,-9999.0,NW,15.0,-,N/A,,Clear,320,2013-10-21 22:00:00
1:30 AM,82.4,59.0,45,29.89,-9999.0,NW,15.0,-,N/A,,Clear,320,2013-10-21 22:30:00
2:00 AM,82.4,59.0,45,29.89,-9999.0,NW,15.0,26.5,N/A,,Clear,320,2013-10-21 23:00:00
2:30 AM,80.6,57.2,45,29.89,-9999.0,NW,15.0,-,N/A,,Clear,320,2013-10-21 23:30:00
3:00 AM,81,57,33,29.89,7,NW,15.0,,,,,320,2013-10-22 00:00:00
3:00 AM,80.6,57.2,45,29.89,-9999.0,NW,15.0,-,N/A,,Clear,320,2013-10-22 00:00:00
3:30 AM,80.6,59.0,48,29.89,-9999.0,NW,15.0,-,N/A,,Clear,320,2013-10-22 00:30:00
4:00 AM,80.6,59.0,48,29.89,-9999.0,NW,15.0,-,N/A,,Clear,320,2013-10-22 01:00:00
4:30 AM,80.6,59.0,48,29.89,-9999.0,NW,15.0,-,N/A,,Clear,320,2013-10-22 01:30:00
5:00 AM,80.6,59.0,48,29.89,-9999.0,NW,13.8,-,N/A,,Clear,320,2013-10-22 02:00:00
5:30 AM,80.6,59.0,48,29.92,-9999.0,NW,12.7,-,N/A,,Clear,320,2013-10-22 02:30:00
6:00 AM,80.6,59.0,48,29.92,-9999.0,NW,15.0,-,N/A,,Clear,320,2013-10-22 03:00:00
6:30 AM,78.8,59.0,51,29.92,-9999.0,NW,13.8,-,N/A,,Clear,320,2013-10-22 03:30:00
7:00 AM,78.8,62.6,57,29.92,-9999.0,NW,12.7,-,N/A,,Clear,320,2013-10-22 04:00:00
7:30 AM,80.6,64.4,58,29.95,-9999.0,NW,12.7,-,N/A,,Clear,320,2013-10-22 04:30:00
8:00 AM,80.6,62.6,54,29.95,-9999.0,NW,15.0,-,N/A,,Clear,320,2013-10-22 05:00:00
8:30 AM,82.4,62.6,51,29.95,-9999.0,NW,16.1,-,N/A,,Clear,320,2013-10-22 05:30:00
9:00 AM,84,60,34,29.96,7,NW,16.1,,,,,320,2013-10-22 06:00:00
9:00 AM,84.2,60.8,45,29.95,-9999.0,NW,16.1,28.8,N/A,,Clear,320,2013-10-22 06:00:00
10:00 AM,86.0,59.0,40,29.95,-9999.0,NW,16.1,27.6,N/A,,Clear,320,2013-10-22 07:00:00
10:30 AM,87.8,59.0,38,29.92,-9999.0,NW,17.3,-,N/A,,Clear,320,2013-10-22 07:30:00
11:00 AM,87.8,57.2,35,29.92,-9999.0,NW,17.3,-,N/A,,Clear,320,2013-10-22 08:00:00
12:00 PM,87.8,57.2,35,29.89,-9999.0,NW,17.3,-,N/A,,Clear,320,2013-10-22 09:00:00
12:30 PM,87.8,59.0,38,29.89,-9999.0,NW,15.0,-,N/A,,Clear,320,2013-10-22 09:30:00
1:00 PM,89.6,59.0,36,29.86,-9999.0,NW,16.1,-,N/A,,Clear,320,2013-10-22 10:00:00
1:30 PM,89.6,57.2,33,29.86,-9999.0,NW,15.0,-,N/A,,Clear,320,2013-10-22 10:30:00
2:00 PM,87.8,53.6,31,29.86,-9999.0,NW,16.1,-,N/A,,Clear,310,2013-10-22 11:00:00
2:30 PM,87.8,57.2,35,29.86,-9999.0,NW,15.0,26.5,N/A,,Clear,320,2013-10-22 11:30:00
3:00 PM,87,54,23,29.88,10,NW,15.0,,,,,310,2013-10-22 12:00:00
3:00 PM,87.8,53.6,31,29.86,-9999.0,NW,15.0,-,N/A,,Clear,310,2013-10-22 12:00:00
3:30 PM,86.0,51.8,31,29.86,-9999.0,NW,13.8,-,N/A,,Clear,320,2013-10-22 12:30:00
4:00 PM,86.0,53.6,33,29.86,-9999.0,NW,13.8,-,N/A,,Clear,320,2013-10-22 13:00:00
4:30 PM,84.2,51.8,33,29.89,-9999.0,NW,13.8,-,N/A,,Clear,320,2013-10-22 13:30:00
5:00 PM,84.2,50.0,30,29.89,-9999.0,NW,13.8,-,N/A,,Clear,320,2013-10-22 14:00:00
5:30 PM,82.4,48.2,30,29.89,-9999.0,NW,11.5,-,N/A,,Clear,320,2013-10-22 14:30:00
6:00 PM,82.4,48.2,30,29.89,-9999.0,NW,12.7,-,N/A,,Clear,320,2013-10-22 15:00:00
6:30 PM,80.6,51.8,37,29.89,-9999.0,NNW,12.7,-,N/A,,Clear,330,2013-10-22 15:30:00
7:00 PM,80.6,51.8,37,29.92,-9999.0,NW,12.7,-,N/A,,Clear,320,2013-10-22 16:00:00
7:30 PM,78.8,53.6,42,29.92,-9999.0,NNW,13.8,-,N/A,,Clear,330,2013-10-22 16:30:00
8:00 PM,78.8,53.6,42,29.92,-9999.0,NNW,11.5,-,N/A,,Clear,330,2013-10-22 17:00:00
9:00 PM,78,54,34,29.94,9,NW,10.4,,,,,320,2013-10-22 18:00:00
9:00 PM,78.8,55.4,44,29.92,-9999.0,NW,10.4,-,N/A,,Clear,320,2013-10-22 18:00:00
9:30 PM,78.8,51.8,39,29.92,-9999.0,NNW,10.4,-,N/A,,Clear,330,2013-10-22 18:30:00
10:00 PM,77.0,51.8,41,29.92,-9999.0,NW,9.2,-,N/A,,Clear,310,2013-10-22 19:00:00
10:30 PM,77.0,51.8,41,29.92,-9999.0,NW,9.2,-,N/A,,Clear,320,2013-10-22 19:30:00
11:00 PM,77.0,53.6,44,29.92,-9999.0,NW,6.9,-,N/A,,Clear,320,2013-10-22 20:00:00
11:30 PM,77.0,51.8,41,29.92,-9999.0,NW,6.9,-,N/A,,Clear,320,2013-10-22 20:30:00